Location: Unspecified
(50.7693°N, 0.0000°E)
Time: 10:13:35
(UTC+00:00)

deb Explorer IX - Pass Details

Date: 22 June 2019
Orbit: 544 x 1107 km, 38.8° (Epoch: 17 October)

Event Time Altitude Azimuth Distance (km) Brightness Sun altitude
Rises 16:44:44 0° 257° (WSW) 3,917 ? 30.0°
Reaches altitude 10° 16:47:53 10° 247° (WSW) 2,963 ? 29.5°
Maximum altitude 16:53:59 29° 191° (S) 1,860 ? 28.5°
Drops below altitude 10° 16:59:48 10° 134° (SE) 2,818 ? 27.6°
Sets 17:02:43 0° 124° (ESE) 3,696 ? 27.2°
